Regional Weather Roundup
Issued by NWS

Home | Current Version | Previous Version | Graphics & Text | Print | Product List | Glossary On
Versions: 1 2 3 4 5 6 7 8 9 10 11 12 13 14 15 16 17 18 19 20 21 22 23 24 25 26 27 28 29 30 31 32 33 34 35 36 37 38 39 40 41 42 43 44 45 46 47 48 49 50
000
ASUS43 KTOP 212259
RWRKS

WEATHER ROUNDUP FOR KANSAS
NATIONAL WEATHER SERVICE GOODLAND KS
500 PM CST SUN DEC 21 2014

NOTE:  "FAIR" INDICATES FEW OR NO CLOUDS BELOW 12,000 FEET WITH NO
SIGNIFICANT WEATHER AND/OR OBSTRUCTIONS TO VISIBILITY.

KSZ001>006-013>018-027>032-041>047-220000-
NORTHWEST KANSAS

CITY           SKY/WX    TMP DP  RH WIND       PRES   REMARKS
GOODLAND       CLOUDY    41  34  76 S7        29.54S
HAYS           CLOUDY    45  34  65 S14       29.62S
HILL CITY      CLOUDY    44  36  73 S10       29.60S
RUSSELL        CLOUDY    42  41  96 S10       29.63F
$$

KSZ061>065-074>080-084>089-220000-
SOUTHWEST KANSAS

CITY           SKY/WX    TMP DP  RH WIND       PRES   REMARKS
DODGE CITY     PTCLDY    43  36  76 S17       29.62S
ELKHART          N/A    N/A N/A N/A MISG        N/A
GARDEN CITY    MOCLDY    47  35  63 S9        29.57F
GREAT BEND     CLOUDY    43  39  87 S15       29.65F
LIBERAL        MOCLDY    48  36  61 S7        29.60F
$$

KSZ066>073-081>083-090>101-220000-
SOUTHEAST KANSAS

CITY           SKY/WX    TMP DP  RH WIND       PRES   REMARKS
CHANUTE        CLOUDY    46  41  82 S15G23    29.83F
COFFEYVILLE    CLOUDY    47  41  80 S10       29.84F
HUTCHINSON     CLOUDY    45  42  89 S14       29.71F FOG
MEDICINE LODGE   N/A     44  44 100 S8G16     29.68F
NEWTON         CLOUDY    43  37  81 S13       29.74F
PARSONS        CLOUDY    47  41  80 S9        29.84F
WICHITA INTL   DRIZZLE   46  43  89 S15       29.73F FOG
WICHITA JABRA  LGT RAIN  44  43  96 S17G23    29.74F FOG
WICHITA MCCONL LGT RAIN  45  43  93 S15G24    29.75S FOG
WINFIELD       CLOUDY    46  42  86 S17G25    29.76F
$$

KSZ007>012-019>026-033>040-048>060-102>105-220000-
NORTHEAST KANSAS

CITY           SKY/WX    TMP DP  RH WIND       PRES   REMARKS
CONCORDIA      CLOUDY    42  41  96 S12       29.68F FOG
EMPORIA        CLOUDY    43  42  97 S16       29.78S FOG
LAWRENCE       CLOUDY    45  40  82 S14       29.82F
MANHATTAN      CLOUDY    44  42  93 S13       29.74F FOG
OLATHE IND     CLOUDY    43  41  93 S14       29.83F FOG
OLATHE EXE     CLOUDY    43  41  93 S13       29.82F
SALINA         CLOUDY    44  42  93 S13       29.71F FOG
TOPEKA BILLARD LGT RAIN  45  43  93 SE10      29.80F FOG
TOPEKA FORBES  LGT RAIN  45  42  89 S13       29.79F FOG
$$


USA.gov is the U.S. government's official web portal to all federal, state and local government web resources and services.